• în Republica Moldova
  • Lista ţărilor
  • Pe 7 zile
  • Temperatura apei
  • Hartă satelitară
  • Meteo pe hartă
  • Widget-uri
  • user-avatar
    Intrare

    Meteo pe oră la Kipungo

    Astăzi, 23 Februarie, Sâmbătă

    Timp Temperatura Precipitaţii Vânt Presiune Umiditate
    00:00 +20°C° 0 mm 2 m/s 654 mmHg 86%
    01:00 +19°C° 0 mm 2 m/s 654 mmHg 95%
    02:00 +19°C° 0 mm 2 m/s 654 mmHg 96%
    03:00 +19°C° 0 mm 2 m/s 654 mmHg 96%
    04:00 +19°C° 0 mm 1 m/s 653 mmHg 97%
    05:00 +20°C° 0 mm 1 m/s 654 mmHg 95%
    06:00 +20°C° 0 mm 1 m/s 654 mmHg 93%
    07:00 +21°C° 0 mm 1 m/s 654 mmHg 90%
    08:00 +24°C° 0 mm 1 m/s 655 mmHg 77%
    09:00 +27°C° 0 mm 1 m/s 656 mmHg 64%
    10:00 +30°C° 0 mm 1 m/s 656 mmHg 51%
    11:00 +31°C° 0 mm 2 m/s 656 mmHg 44%
    12:00 +32°C° 0 mm 2 m/s 655 mmHg 36%
    13:00 +34°C° 0 mm 3 m/s 655 mmHg 28%
    14:00 +34°C° 0 mm 3 m/s 654 mmHg 30%
    15:00 +33°C° 0 mm 3 m/s 654 mmHg 31%
    16:00 +32°C° 0 mm 2 m/s 653 mmHg 33%
    17:00 +30°C° 0 mm 2 m/s 653 mmHg 39%
    18:00 +27°C° 0 mm 1 m/s 652 mmHg 45%
    19:00 +25°C° 0 mm 1 m/s 652 mmHg 52%
    20:00 +25°C° 0 mm 1 m/s 653 mmHg 54%
    21:00 +24°C° 0 mm 1 m/s 653 mmHg 56%
    22:00 +24°C° 0 mm 1 m/s 654 mmHg 58%
    23:00 +23°C° 0.1 mm 1 m/s 653 mmHg 64%

    Mâine, 24 Februarie, Duminică

    Timp Temperatura Precipitaţii Vânt Presiune Umiditate
    00:00 +22°C° 0.1 mm 1 m/s 653 mmHg 71%
    01:00 +21°C° 0.1 mm 1 m/s 653 mmHg 77%
    02:00 +21°C° 0 mm 1 m/s 653 mmHg 80%
    03:00 +20°C° 0 mm 1 m/s 652 mmHg 84%
    04:00 +20°C° 0 mm 1 m/s 652 mmHg 87%
    05:00 +20°C° 0 mm 1 m/s 652 mmHg 85%
    06:00 +21°C° 0 mm 1 m/s 653 mmHg 84%
    07:00 +21°C° 0 mm 1 m/s 653 mmHg 82%
    08:00 +24°C° 0 mm 1 m/s 654 mmHg 71%
    09:00 +25°C° 0 mm 0 m/s 655 mmHg 60%
    10:00 +28°C° 0 mm 0 m/s 656 mmHg 50%
    11:00 +30°C° 0 mm 1 m/s 655 mmHg 45%
    12:00 +31°C° 0 mm 2 m/s 655 mmHg 40%
    13:00 +33°C° 0 mm 3 m/s 654 mmHg 35%
    14:00 +31°C° 0 mm 3 m/s 654 mmHg 37%
    15:00 +31°C° 0 mm 3 m/s 653 mmHg 38%
    16:00 +30°C° 0 mm 2 m/s 652 mmHg 40%
    17:00 +28°C° 0 mm 2 m/s 652 mmHg 45%
    18:00 +27°C° 0 mm 1 m/s 652 mmHg 50%
    19:00 +23°C° 0 mm 0 m/s 652 mmHg 54%
    20:00 +22°C° 0 mm 0 m/s 652 mmHg 56%
    21:00 +22°C° 0 mm 0 m/s 653 mmHg 57%
    22:00 +21°C° 0 mm 0 m/s 653 mmHg 58%
    23:00 +21°C° 0 mm 0 m/s 653 mmHg 60%

    Poimâine, 25 Februarie, Luni

    Timp Temperatura Precipitaţii Vânt Presiune Umiditate
    00:00 +20°C° 0 mm 0 m/s 653 mmHg 62%
    01:00 +19°C° 0 mm 0 m/s 652 mmHg 64%
    02:00 +18°C° 0 mm 0 m/s 652 mmHg 69%
    03:00 +18°C° 0 mm 0 m/s 651 mmHg 73%
    04:00 +17°C° 0 mm 0 m/s 651 mmHg 77%
    05:00 +17°C° 0 mm 0 m/s 652 mmHg 76%
    06:00 +18°C° 0 mm 0 m/s 652 mmHg 74%
    07:00 +19°C° 0 mm 0 m/s 653 mmHg 73%
    08:00 +22°C° 0 mm 0 m/s 654 mmHg 63%
    09:00 +26°C° 0 mm 0 m/s 655 mmHg 52%
    10:00 +30°C° 0 mm 0 m/s 656 mmHg 42%
    11:00 +33°C° 0 mm 1 m/s 656 mmHg 38%
    12:00 +34°C° 0 mm 2 m/s 655 mmHg 33%
    13:00 +35°C° 0 mm 3 m/s 654 mmHg 29%
    14:00 +34°C° 0 mm 3 m/s 654 mmHg 31%
    15:00 +32°C° 0 mm 2 m/s 653 mmHg 34%
    16:00 +32°C° 0 mm 1 m/s 652 mmHg 36%
    17:00 +30°C° 0 mm 1 m/s 652 mmHg 39%
    18:00 +28°C° 0 mm 1 m/s 652 mmHg 43%
    19:00 +26°C° 0 mm 1 m/s 652 mmHg 46%
    20:00 +26°C° 0 mm 1 m/s 653 mmHg 49%
    21:00 +25°C° 0 mm 2 m/s 654 mmHg 52%
    22:00 +25°C° 0 mm 2 m/s 654 mmHg 55%
    23:00 +24°C° 0 mm 2 m/s 654 mmHg 62%

    26 Februarie, Marţi

    Timp Temperatura Precipitaţii Vânt Presiune Umiditate
    00:00 +23°C° 0 mm 2 m/s 653 mmHg 69%
    01:00 +20°C° 0 mm 2 m/s 653 mmHg 76%
    02:00 +21°C° 0 mm 1 m/s 653 mmHg 78%
    03:00 +21°C° 0 mm 1 m/s 652 mmHg 80%
    04:00 +20°C° 0 mm 1 m/s 652 mmHg 82%
    05:00 +21°C° 0 mm 1 m/s 653 mmHg 80%
    06:00 +21°C° 0 mm 1 m/s 653 mmHg 78%
    07:00 +21°C° 0 mm 1 m/s 654 mmHg 76%
    08:00 +22°C° 0 mm 1 m/s 654 mmHg 71%
    09:00 +24°C° 0 mm 2 m/s 654 mmHg 66%
    10:00 +25°C° 0 mm 2 m/s 654 mmHg 61%
    11:00 +26°C° 0 mm 2 m/s 654 mmHg 56%
    12:00 +27°C° 0 mm 2 m/s 653 mmHg 51%
    13:00 +29°C° 0 mm 2 m/s 653 mmHg 47%
    14:00 +29°C° 0 mm 2 m/s 653 mmHg 44%
    15:00 +30°C° 0 mm 1 m/s 652 mmHg 42%
    16:00 +31°C° 0 mm 1 m/s 652 mmHg 39%
    17:00 +29°C° 0.4 mm 1 m/s 652 mmHg 47%
    18:00 +27°C° 0.4 mm 1 m/s 652 mmHg 55%
    19:00 +25°C° 0.4 mm 1 m/s 652 mmHg 62%
    20:00 +24°C° 0 mm 1 m/s 652 mmHg 65%
    21:00 +23°C° 0 mm 1 m/s 652 mmHg 67%
    22:00 +21°C° 0 mm 2 m/s 653 mmHg 70%
    23:00 +21°C° 0 mm 1 m/s 652 mmHg 74%

    27 Februarie, Miercuri

    Timp Temperatura Precipitaţii Vânt Presiune Umiditate
    00:00 +21°C° 0 mm 1 m/s 652 mmHg 78%
    01:00 +20°C° 0 mm 1 m/s 652 mmHg 83%
    02:00 +20°C° 0 mm 1 m/s 652 mmHg 83%
    03:00 +20°C° 0 mm 1 m/s 652 mmHg 84%
    04:00 +18°C° 0 mm 0 m/s 651 mmHg 85%
    05:00 +18°C° 0 mm 0 m/s 652 mmHg 83%
    06:00 +19°C° 0 mm 0 m/s 652 mmHg 82%
    07:00 +19°C° 0 mm 0 m/s 653 mmHg 80%
    08:00 +23°C° 0 mm 0 m/s 654 mmHg 68%
    09:00 +27°C° 0 mm 0 m/s 655 mmHg 55%
    10:00 +30°C° 0 mm 0 m/s 656 mmHg 43%
    11:00 +33°C° 0 mm 1 m/s 655 mmHg 38%
    12:00 +35°C° 0 mm 2 m/s 655 mmHg 34%
    13:00 +35°C° 0 mm 3 m/s 654 mmHg 29%
    14:00 +34°C° 0 mm 2 m/s 653 mmHg 33%
    15:00 +32°C° 0 mm 2 m/s 653 mmHg 37%
    16:00 +31°C° 0 mm 2 m/s 652 mmHg 41%
    17:00 +30°C° 0 mm 2 m/s 652 mmHg 45%
    18:00 +28°C° 0 mm 2 m/s 653 mmHg 50%
    19:00 +27°C° 0 mm 2 m/s 653 mmHg 55%
    20:00 +26°C° 0.9 mm 2 m/s 653 mmHg 63%
    21:00 +24°C° 0.9 mm 1 m/s 653 mmHg 72%
    22:00 +23°C° 0.9 mm 1 m/s 653 mmHg 80%
    23:00 +22°C° 1 mm 1 m/s 653 mmHg 85%

    28 Februarie, Joi

    Timp Temperatura Precipitaţii Vânt Presiune Umiditate
    00:00 +21°C° 1 mm 1 m/s 653 mmHg 89%
    01:00 +21°C° 1 mm 1 m/s 652 mmHg 94%
    02:00 +21°C° 0.1 mm 1 m/s 652 mmHg 93%
    03:00 +20°C° 0.1 mm 1 m/s 652 mmHg 93%
    04:00 +20°C° 0.1 mm 1 m/s 652 mmHg 93%
    05:00 +20°C° 0 mm 1 m/s 652 mmHg 92%
    06:00 +21°C° 0 mm 1 m/s 653 mmHg 92%
    07:00 +20°C° 0 mm 2 m/s 653 mmHg 91%
    08:00 +24°C° 0 mm 1 m/s 654 mmHg 77%
    09:00 +28°C° 0 mm 1 m/s 655 mmHg 63%
    10:00 +29°C° 0 mm 0 m/s 656 mmHg 49%
    11:00 +32°C° 0 mm 1 m/s 655 mmHg 43%
    12:00 +35°C° 0 mm 2 m/s 655 mmHg 36%
    13:00 +36°C° 0 mm 3 m/s 655 mmHg 30%
    14:00 +35°C° 0 mm 2 m/s 654 mmHg 33%
    15:00 +34°C° 0 mm 2 m/s 653 mmHg 37%
    16:00 +32°C° 0 mm 1 m/s 653 mmHg 40%
    17:00 +30°C° 0 mm 2 m/s 653 mmHg 43%
    18:00 +29°C° 0 mm 2 m/s 653 mmHg 46%
    19:00 +27°C° 0 mm 3 m/s 653 mmHg 48%
    20:00 +26°C° 0.6 mm 2 m/s 653 mmHg 60%
    21:00 +24°C° 0.6 mm 2 m/s 653 mmHg 71%
    22:00 +22°C° 0.6 mm 1 m/s 653 mmHg 83%
    23:00 +22°C° 1 mm 1 m/s 653 mmHg 85%
    Arată mai mult